Year,Month,Day,Hour,Minute,Value (Times are PST for temperature in C)
2015,05,20,00,00,11.40
2015,05,20,00,01,11.40
2015,05,20,00,02,11.30
2015,05,20,00,03,11.30
2015,05,20,00,04,11.30
2015,05,20,00,05,11.40
2015,05,20,00,06,11.40
2015,05,20,00,07,11.40
2015,05,20,00,08,11.40
2015,05,20,00,09,11.40
2015,05,20,00,10,11.30
2015,05,20,00,11,11.30
2015,05,20,00,12,11.30
2015,05,20,00,13,11.30
2015,05,20,00,14,11.30
2015,05,20,00,15,11.30
2015,05,20,00,16,11.30
2015,05,20,00,17,11.30
2015,05,20,00,18,11.30
2015,05,20,00,19,11.30
2015,05,20,00,20,11.40
2015,05,20,00,21,11.40
2015,05,20,00,22,11.40
2015,05,20,00,23,11.40
2015,05,20,00,24,11.50
2015,05,20,00,25,11.50
2015,05,20,00,26,11.50
2015,05,20,00,27,11.60
2015,05,20,00,28,11.60
2015,05,20,00,29,11.70
2015,05,20,00,30,11.70
2015,05,20,00,31,11.80
2015,05,20,00,32,11.90
2015,05,20,00,33,11.90
2015,05,20,00,34,12.00
2015,05,20,00,35,12.10
2015,05,20,00,36,12.10
2015,05,20,00,37,12.20
2015,05,20,00,38,12.20
2015,05,20,00,39,12.30
2015,05,20,00,40,12.30
2015,05,20,00,41,12.40
2015,05,20,00,42,12.40
2015,05,20,00,43,12.40
2015,05,20,00,44,12.50
2015,05,20,00,45,12.50
2015,05,20,00,46,12.50
2015,05,20,00,47,12.50
2015,05,20,00,48,12.40
2015,05,20,00,49,12.40
2015,05,20,00,50,12.30
2015,05,20,00,51,12.30
2015,05,20,00,52,12.30
2015,05,20,00,53,12.20
2015,05,20,00,54,12.20
2015,05,20,00,55,12.20
2015,05,20,00,56,12.20
2015,05,20,00,57,12.10
2015,05,20,00,58,12.10
2015,05,20,00,59,12.10
2015,05,20,01,00,12.10
2015,05,20,01,01,12.10
2015,05,20,01,02,12.10
2015,05,20,01,03,12.10
2015,05,20,01,04,12.00
2015,05,20,01,05,12.00
2015,05,20,01,06,11.90
2015,05,20,01,07,11.90
2015,05,20,01,08,11.90
2015,05,20,01,09,11.80
2015,05,20,01,10,11.80
2015,05,20,01,11,11.70
2015,05,20,01,12,11.70
2015,05,20,01,13,11.70
2015,05,20,01,14,11.70
2015,05,20,01,15,11.60
2015,05,20,01,16,11.60
2015,05,20,01,17,11.50
2015,05,20,01,18,11.50
2015,05,20,01,19,11.40
2015,05,20,01,20,11.40
2015,05,20,01,21,11.40
2015,05,20,01,22,11.40
2015,05,20,01,23,11.40
2015,05,20,01,24,11.40
2015,05,20,01,25,11.30
2015,05,20,01,26,11.30
2015,05,20,01,27,11.30
2015,05,20,01,28,11.30
2015,05,20,01,29,11.30
2015,05,20,01,30,11.30
2015,05,20,01,31,11.30
2015,05,20,01,32,11.30
2015,05,20,01,33,11.30
2015,05,20,01,34,11.30
2015,05,20,01,35,11.30
2015,05,20,01,36,11.30
2015,05,20,01,37,11.20
2015,05,20,01,38,11.20
2015,05,20,01,39,11.20
2015,05,20,01,40,11.20
2015,05,20,01,41,11.20
2015,05,20,01,42,11.20
2015,05,20,01,43,11.10
2015,05,20,01,44,11.10
2015,05,20,01,45,11.10
2015,05,20,01,46,11.10
2015,05,20,01,47,11.10
2015,05,20,01,48,11.10
2015,05,20,01,49,11.10
2015,05,20,01,50,11.10
2015,05,20,01,51,11.10
2015,05,20,01,52,11.10
2015,05,20,01,53,11.00
2015,05,20,01,54,11.00
2015,05,20,01,55,10.90
2015,05,20,01,56,10.90
2015,05,20,01,57,10.90
2015,05,20,01,58,10.90
2015,05,20,01,59,10.90
2015,05,20,02,00,10.90
2015,05,20,02,01,10.80
2015,05,20,02,02,10.80
2015,05,20,02,03,10.80
2015,05,20,02,04,10.90
2015,05,20,02,05,10.80
2015,05,20,02,06,10.80
2015,05,20,02,07,10.80
2015,05,20,02,08,10.80
2015,05,20,02,09,10.80
2015,05,20,02,10,10.80
2015,05,20,02,11,10.80
2015,05,20,02,12,10.80
2015,05,20,02,13,10.80
2015,05,20,02,14,10.80
2015,05,20,02,15,10.80
2015,05,20,02,16,10.80
2015,05,20,02,17,10.80
2015,05,20,02,18,10.80
2015,05,20,02,19,10.80
2015,05,20,02,20,10.80
2015,05,20,02,21,10.80
2015,05,20,02,22,10.80
2015,05,20,02,23,10.80
2015,05,20,02,24,10.80
2015,05,20,02,25,10.80
2015,05,20,02,26,10.80
2015,05,20,02,27,10.70
2015,05,20,02,28,10.70
2015,05,20,02,29,10.70
2015,05,20,02,30,10.70
2015,05,20,02,31,10.70
2015,05,20,02,32,10.70
2015,05,20,02,33,10.70
2015,05,20,02,34,10.70
2015,05,20,02,35,10.70
2015,05,20,02,36,10.70
2015,05,20,02,37,10.70
2015,05,20,02,38,10.70
2015,05,20,02,39,10.70
2015,05,20,02,40,10.70
2015,05,20,02,41,10.70
2015,05,20,02,42,10.70
2015,05,20,02,43,10.70
2015,05,20,02,44,10.70
2015,05,20,02,45,10.70
2015,05,20,02,46,10.70
2015,05,20,02,47,10.70
2015,05,20,02,48,10.60
2015,05,20,02,49,10.60
2015,05,20,02,50,10.60
2015,05,20,02,51,10.60
2015,05,20,02,52,10.60
2015,05,20,02,53,10.60
2015,05,20,02,54,10.60
2015,05,20,02,55,10.60
2015,05,20,02,56,10.60
2015,05,20,02,57,10.50
2015,05,20,02,58,10.50
2015,05,20,02,59,10.50
2015,05,20,03,00,10.40
2015,05,20,03,01,10.40
2015,05,20,03,02,10.40
2015,05,20,03,03,10.40
2015,05,20,03,04,10.40
2015,05,20,03,05,10.40
2015,05,20,03,06,10.40
2015,05,20,03,07,10.40
2015,05,20,03,08,10.40
2015,05,20,03,09,10.40
2015,05,20,03,10,10.40
2015,05,20,03,11,10.40
2015,05,20,03,12,10.30
2015,05,20,03,13,10.30
2015,05,20,03,14,10.30
2015,05,20,03,15,10.30
2015,05,20,03,16,10.20
2015,05,20,03,17,10.20
2015,05,20,03,18,10.20
2015,05,20,03,19,10.20
2015,05,20,03,20,10.10
2015,05,20,03,21,10.10
2015,05,20,03,22,10.10
2015,05,20,03,23,10.10
2015,05,20,03,24,10.00
2015,05,20,03,25,10.00
2015,05,20,03,26,10.00
2015,05,20,03,27,10.00
2015,05,20,03,28,10.00
2015,05,20,03,29,10.00
2015,05,20,03,30,10.00
2015,05,20,03,31,10.10
2015,05,20,03,32,10.10
2015,05,20,03,33,10.10
2015,05,20,03,34,10.00
2015,05,20,03,35,10.00
2015,05,20,03,36,9.90
2015,05,20,03,37,9.90
2015,05,20,03,38,9.90
2015,05,20,03,39,9.90
2015,05,20,03,40,9.90
2015,05,20,03,41,9.90
2015,05,20,03,42,9.90
2015,05,20,03,43,9.90
2015,05,20,03,44,9.90
2015,05,20,03,45,9.90
2015,05,20,03,46,9.90
2015,05,20,03,47,10.00
2015,05,20,03,48,10.00
2015,05,20,03,49,10.00
2015,05,20,03,50,10.00
2015,05,20,03,51,10.00
2015,05,20,03,52,10.10
2015,05,20,03,53,10.10
2015,05,20,03,54,10.00
2015,05,20,03,55,10.00
2015,05,20,03,56,10.10
2015,05,20,03,57,10.10
2015,05,20,03,58,10.10
2015,05,20,03,59,10.10
2015,05,20,04,00,10.10
2015,05,20,04,01,10.10
2015,05,20,04,02,10.10
2015,05,20,04,03,10.10
2015,05,20,04,04,10.10
2015,05,20,04,05,10.10
2015,05,20,04,06,10.10
2015,05,20,04,07,10.10
2015,05,20,04,08,10.10
2015,05,20,04,09,10.10
2015,05,20,04,10,10.10
2015,05,20,04,11,10.10
2015,05,20,04,12,10.10
2015,05,20,04,13,10.10
2015,05,20,04,14,10.10
2015,05,20,04,15,10.10
2015,05,20,04,16,10.00
2015,05,20,04,17,10.00
2015,05,20,04,18,10.00
2015,05,20,04,19,10.00
2015,05,20,04,20,10.00
2015,05,20,04,21,10.00
2015,05,20,04,22,10.00
2015,05,20,04,23,10.00
2015,05,20,04,24,10.10
2015,05,20,04,25,10.10
2015,05,20,04,26,10.10
2015,05,20,04,27,10.10
2015,05,20,04,28,10.10
2015,05,20,04,29,10.10
2015,05,20,04,30,10.10
2015,05,20,04,31,10.10
2015,05,20,04,32,10.10
2015,05,20,04,33,10.10
2015,05,20,04,34,10.10
2015,05,20,04,35,10.10
2015,05,20,04,36,10.10
2015,05,20,04,37,10.10
2015,05,20,04,38,10.10
2015,05,20,04,39,10.10
2015,05,20,04,40,10.10
2015,05,20,04,41,10.10
2015,05,20,04,42,10.10
2015,05,20,04,43,10.10
2015,05,20,04,44,10.10
2015,05,20,04,45,10.10
2015,05,20,04,46,10.10
2015,05,20,04,47,10.10
2015,05,20,04,48,10.10
2015,05,20,04,49,10.10
2015,05,20,04,50,10.10
2015,05,20,04,51,10.10
2015,05,20,04,52,10.10
2015,05,20,04,53,10.00
2015,05,20,04,54,10.10
2015,05,20,04,55,10.00
2015,05,20,04,56,10.00
2015,05,20,04,57,10.00
2015,05,20,04,58,10.00
2015,05,20,04,59,10.00
2015,05,20,05,00,10.00
2015,05,20,05,01,9.90
2015,05,20,05,02,9.90
2015,05,20,05,03,9.90
2015,05,20,05,04,10.00
2015,05,20,05,05,10.00
2015,05,20,05,06,10.00
2015,05,20,05,07,10.00
2015,05,20,05,08,10.00
2015,05,20,05,09,9.90
2015,05,20,05,10,10.00
2015,05,20,05,11,9.90
2015,05,20,05,12,9.90
2015,05,20,05,13,9.90
2015,05,20,05,14,10.00
2015,05,20,05,15,10.00
2015,05,20,05,16,10.00
2015,05,20,05,17,9.90
2015,05,20,05,18,9.90
2015,05,20,05,19,9.90
2015,05,20,05,20,9.90
2015,05,20,05,21,9.90
2015,05,20,05,22,9.90
2015,05,20,05,23,9.90
2015,05,20,05,24,9.90
2015,05,20,05,25,9.90
2015,05,20,05,26,9.90
2015,05,20,05,27,9.90
2015,05,20,05,28,9.90
2015,05,20,05,29,9.90
2015,05,20,05,30,9.90
2015,05,20,05,31,9.90
2015,05,20,05,32,9.90
2015,05,20,05,33,9.90
2015,05,20,05,34,9.90
2015,05,20,05,35,9.90
2015,05,20,05,36,9.90
2015,05,20,05,37,9.90
2015,05,20,05,38,9.90
2015,05,20,05,39,9.90
2015,05,20,05,40,9.90
2015,05,20,05,41,9.90
2015,05,20,05,42,9.90
2015,05,20,05,43,9.90
2015,05,20,05,44,9.90
2015,05,20,05,45,9.90
2015,05,20,05,46,9.90
2015,05,20,05,47,9.90
2015,05,20,05,48,9.90
2015,05,20,05,49,9.90
2015,05,20,05,50,9.90
2015,05,20,05,51,9.90
2015,05,20,05,52,9.90
2015,05,20,05,53,9.90
2015,05,20,05,54,10.00
2015,05,20,05,55,10.00
2015,05,20,05,56,10.00
2015,05,20,05,57,10.00
2015,05,20,05,58,10.00
2015,05,20,05,59,10.00
2015,05,20,06,00,10.00
2015,05,20,06,01,10.00
2015,05,20,06,02,10.00
2015,05,20,06,03,10.00
2015,05,20,06,04,10.00
2015,05,20,06,05,10.00
2015,05,20,06,06,10.00
2015,05,20,06,07,10.00
2015,05,20,06,08,10.10
2015,05,20,06,09,10.10
2015,05,20,06,10,10.10
2015,05,20,06,11,10.10
2015,05,20,06,12,10.00
2015,05,20,06,13,10.00
2015,05,20,06,14,10.00
2015,05,20,06,15,10.10
2015,05,20,06,16,10.10
2015,05,20,06,17,10.10
2015,05,20,06,18,10.10
2015,05,20,06,19,10.10
2015,05,20,06,20,10.10
2015,05,20,06,21,10.20
2015,05,20,06,22,10.20
2015,05,20,06,23,10.20
2015,05,20,06,24,10.20
2015,05,20,06,25,10.20
2015,05,20,06,26,10.30
2015,05,20,06,27,10.30
2015,05,20,06,28,10.30
2015,05,20,06,29,10.40
2015,05,20,06,30,10.40
2015,05,20,06,31,10.40
2015,05,20,06,32,10.50
2015,05,20,06,33,10.50
2015,05,20,06,34,10.50
2015,05,20,06,35,10.50
2015,05,20,06,36,10.50
2015,05,20,06,37,10.60
2015,05,20,06,38,10.60
2015,05,20,06,39,10.60
2015,05,20,06,40,10.60
2015,05,20,06,41,10.60
2015,05,20,06,42,10.60
2015,05,20,06,43,10.60
2015,05,20,06,44,10.70
2015,05,20,06,45,10.70
2015,05,20,06,46,10.70
2015,05,20,06,47,10.70
2015,05,20,06,48,10.70
2015,05,20,06,49,10.70
2015,05,20,06,50,10.70
2015,05,20,06,51,10.80
2015,05,20,06,52,10.80
2015,05,20,06,53,10.80
2015,05,20,06,54,10.90
2015,05,20,06,55,10.90
2015,05,20,06,56,11.00
2015,05,20,06,57,11.00
2015,05,20,06,58,11.10
2015,05,20,06,59,11.10
2015,05,20,07,00,11.10
2015,05,20,07,01,11.10
2015,05,20,07,02,11.20
2015,05,20,07,03,11.20
2015,05,20,07,04,11.30
2015,05,20,07,05,11.30
2015,05,20,07,06,11.30
2015,05,20,07,07,11.30
2015,05,20,07,08,11.30
2015,05,20,07,09,11.40
2015,05,20,07,10,11.40
2015,05,20,07,11,11.50
2015,05,20,07,12,11.50
2015,05,20,07,13,11.60
2015,05,20,07,14,11.60
2015,05,20,07,15,11.70
2015,05,20,07,16,11.70
2015,05,20,07,17,11.70
2015,05,20,07,18,11.80
2015,05,20,07,19,11.90
2015,05,20,07,20,11.90
2015,05,20,07,21,11.90
2015,05,20,07,22,12.00
2015,05,20,07,23,12.00
2015,05,20,07,24,11.90
2015,05,20,07,25,11.90
2015,05,20,07,26,11.90
2015,05,20,07,27,11.90
2015,05,20,07,28,11.90
2015,05,20,07,29,12.00
2015,05,20,07,30,12.00
2015,05,20,07,31,12.00
2015,05,20,07,32,12.00
2015,05,20,07,33,12.00
2015,05,20,07,34,12.00
2015,05,20,07,35,12.00
2015,05,20,07,36,12.00
2015,05,20,07,37,12.10
2015,05,20,07,38,12.10
2015,05,20,07,39,12.10
2015,05,20,07,40,12.10
2015,05,20,07,41,12.20
2015,05,20,07,42,12.20
2015,05,20,07,43,12.20
2015,05,20,07,44,12.20
2015,05,20,07,45,12.20
2015,05,20,07,46,12.20
2015,05,20,07,47,12.20
2015,05,20,07,48,12.30
2015,05,20,07,49,12.30
2015,05,20,07,50,12.30
2015,05,20,07,51,12.30
2015,05,20,07,52,12.20
2015,05,20,07,53,12.20
2015,05,20,07,54,12.20
2015,05,20,07,55,12.20
2015,05,20,07,56,12.20
2015,05,20,07,57,12.20
2015,05,20,07,58,12.20
2015,05,20,07,59,12.30
2015,05,20,08,00,12.30
2015,05,20,08,01,12.30
2015,05,20,08,02,12.30
2015,05,20,08,03,12.30
2015,05,20,08,04,12.30
2015,05,20,08,05,12.30
2015,05,20,08,06,12.30
2015,05,20,08,07,12.30
2015,05,20,08,08,12.30
2015,05,20,08,09,12.30
2015,05,20,08,10,12.30
2015,05,20,08,11,12.30
2015,05,20,08,12,12.20
2015,05,20,08,13,12.20
2015,05,20,08,14,12.20
2015,05,20,08,15,12.30
2015,05,20,08,16,12.30
2015,05,20,08,17,12.30
2015,05,20,08,18,12.30
2015,05,20,08,19,12.30
2015,05,20,08,20,12.30
2015,05,20,08,21,12.30
2015,05,20,08,22,12.30
2015,05,20,08,23,12.30
2015,05,20,08,24,12.30
2015,05,20,08,25,12.30
2015,05,20,08,26,12.30
2015,05,20,08,27,12.30
2015,05,20,08,28,12.30
2015,05,20,08,29,12.40
2015,05,20,08,30,12.40
2015,05,20,08,31,12.40
2015,05,20,08,32,12.40
2015,05,20,08,33,12.50
2015,05,20,08,34,12.50
2015,05,20,08,35,12.60
2015,05,20,08,36,12.60
2015,05,20,08,37,12.70
2015,05,20,08,38,12.70
2015,05,20,08,39,12.80
2015,05,20,08,40,12.80
2015,05,20,08,41,12.90
2015,05,20,08,42,12.90
2015,05,20,08,43,13.00
2015,05,20,08,44,13.10
2015,05,20,08,45,13.10
2015,05,20,08,46,13.10
2015,05,20,08,47,13.10
2015,05,20,08,48,13.20
2015,05,20,08,49,13.20
2015,05,20,08,50,13.20
2015,05,20,08,51,13.20
2015,05,20,08,52,13.30
2015,05,20,08,53,13.30
2015,05,20,08,54,13.40
2015,05,20,08,55,13.40
2015,05,20,08,56,13.40
2015,05,20,08,57,13.40
2015,05,20,08,58,13.40
2015,05,20,08,59,13.40
2015,05,20,09,00,13.40
2015,05,20,09,01,13.50
2015,05,20,09,02,13.50
2015,05,20,09,03,13.60
2015,05,20,09,04,13.60
2015,05,20,09,05,13.70
2015,05,20,09,06,13.70
2015,05,20,09,07,13.80
2015,05,20,09,08,13.90
2015,05,20,09,09,14.00
2015,05,20,09,10,14.10
2015,05,20,09,11,14.20
2015,05,20,09,12,14.30
2015,05,20,09,13,14.30
2015,05,20,09,14,14.40
2015,05,20,09,15,14.40
2015,05,20,09,16,14.40
2015,05,20,09,17,14.40
2015,05,20,09,18,14.40
2015,05,20,09,19,14.40
2015,05,20,09,20,14.50
2015,05,20,09,21,14.50
2015,05,20,09,22,14.50
2015,05,20,09,23,14.50
2015,05,20,09,24,14.60
2015,05,20,09,25,14.60
2015,05,20,09,26,14.70
2015,05,20,09,27,14.70
2015,05,20,09,28,14.70
2015,05,20,09,29,14.70
2015,05,20,09,30,14.60
2015,05,20,09,31,14.60
2015,05,20,09,32,14.50
2015,05,20,09,33,14.40
2015,05,20,09,34,14.40
2015,05,20,09,35,14.30
2015,05,20,09,36,14.30
2015,05,20,09,37,14.20
2015,05,20,09,38,14.20
2015,05,20,09,39,14.20
2015,05,20,09,40,14.10
2015,05,20,09,41,14.10
2015,05,20,09,42,14.10
2015,05,20,09,43,14.00
2015,05,20,09,44,14.00
2015,05,20,09,45,13.90
2015,05,20,09,46,13.80
2015,05,20,09,47,13.80
2015,05,20,09,48,13.80
2015,05,20,09,49,13.80
2015,05,20,09,50,13.90
2015,05,20,09,51,13.90
2015,05,20,09,52,14.10
2015,05,20,09,53,14.20
2015,05,20,09,54,14.20
2015,05,20,09,55,14.30
2015,05,20,09,56,14.40
2015,05,20,09,57,14.40
2015,05,20,09,58,14.40
2015,05,20,09,59,14.40
2015,05,20,10,00,14.50
2015,05,20,10,01,14.50
2015,05,20,10,02,14.50
2015,05,20,10,03,14.40
2015,05,20,10,04,14.50
2015,05,20,10,05,14.50
2015,05,20,10,06,14.60
2015,05,20,10,07,14.60
2015,05,20,10,08,14.60
2015,05,20,10,09,14.60
2015,05,20,10,10,14.70
2015,05,20,10,11,14.80
2015,05,20,10,12,14.80
2015,05,20,10,13,14.90
2015,05,20,10,14,15.00
2015,05,20,10,15,15.20
2015,05,20,10,16,15.30
2015,05,20,10,17,15.40
2015,05,20,10,18,15.30
2015,05,20,10,19,15.30
2015,05,20,10,20,15.20
2015,05,20,10,21,15.20
2015,05,20,10,22,15.20
2015,05,20,10,23,15.10
2015,05,20,10,24,15.00
2015,05,20,10,25,15.00
2015,05,20,10,26,15.00
2015,05,20,10,27,15.10
2015,05,20,10,28,15.00
2015,05,20,10,29,15.00
2015,05,20,10,30,15.00
2015,05,20,10,31,15.00
2015,05,20,10,32,15.00
2015,05,20,10,33,15.00
2015,05,20,10,34,15.10
2015,05,20,10,35,15.20
2015,05,20,10,36,15.30
2015,05,20,10,37,15.30
2015,05,20,10,38,15.30
2015,05,20,10,39,15.30
2015,05,20,10,40,15.30
2015,05,20,10,41,15.30
2015,05,20,10,42,15.30
2015,05,20,10,43,15.30
2015,05,20,10,44,15.30
2015,05,20,10,45,15.20
2015,05,20,10,46,15.20
2015,05,20,10,47,15.20
2015,05,20,10,48,15.10
2015,05,20,10,49,15.20
2015,05,20,10,50,15.30
2015,05,20,10,51,15.50
2015,05,20,10,52,15.60
2015,05,20,10,53,15.80
2015,05,20,10,54,15.90
2015,05,20,10,55,15.80
2015,05,20,10,56,15.80
2015,05,20,10,57,15.70
2015,05,20,10,58,15.70
2015,05,20,10,59,15.70
2015,05,20,11,00,15.70
2015,05,20,11,01,15.70
2015,05,20,11,02,15.80
2015,05,20,11,03,15.80
2015,05,20,11,04,15.70
2015,05,20,11,05,15.70
2015,05,20,11,06,15.80
2015,05,20,11,07,15.80
2015,05,20,11,08,16.00
2015,05,20,11,09,16.10
2015,05,20,11,10,16.10
2015,05,20,11,11,16.10
2015,05,20,11,12,16.10
2015,05,20,11,13,16.10
2015,05,20,11,14,16.20
2015,05,20,11,15,16.30
2015,05,20,11,16,16.30
2015,05,20,11,17,16.30
2015,05,20,11,18,16.30
2015,05,20,11,19,16.30
2015,05,20,11,20,16.30
2015,05,20,11,21,16.30
2015,05,20,11,22,16.30
2015,05,20,11,23,16.30
2015,05,20,11,24,16.30
2015,05,20,11,25,16.40
2015,05,20,11,26,16.40
2015,05,20,11,27,16.40
2015,05,20,11,28,16.30
2015,05,20,11,29,16.20
2015,05,20,11,30,16.20
2015,05,20,11,31,16.20
2015,05,20,11,32,16.10
2015,05,20,11,33,16.10
2015,05,20,11,34,16.10
2015,05,20,11,35,16.10
2015,05,20,11,36,16.20
2015,05,20,11,37,16.30
2015,05,20,11,38,16.30
2015,05,20,11,39,16.30
2015,05,20,11,40,16.30
2015,05,20,11,41,16.30
2015,05,20,11,42,16.30
2015,05,20,11,43,16.30
2015,05,20,11,44,16.30
2015,05,20,11,45,16.30
2015,05,20,11,46,16.30
2015,05,20,11,47,16.30
2015,05,20,11,48,16.20
2015,05,20,11,49,16.10
2015,05,20,11,50,16.10
2015,05,20,11,51,16.10
2015,05,20,11,52,16.10
2015,05,20,11,53,16.20
2015,05,20,11,54,16.30
2015,05,20,11,55,16.40
2015,05,20,11,56,16.50
2015,05,20,11,57,16.50
2015,05,20,11,58,16.50
2015,05,20,11,59,16.50
2015,05,20,12,00,16.40
2015,05,20,12,01,16.50
2015,05,20,12,02,16.60
2015,05,20,12,03,16.60
2015,05,20,12,04,16.60
2015,05,20,12,05,16.60
2015,05,20,12,06,16.60
2015,05,20,12,07,16.60
2015,05,20,12,08,16.60
2015,05,20,12,09,16.70
2015,05,20,12,10,16.80
2015,05,20,12,11,16.90
2015,05,20,12,12,16.90
2015,05,20,12,13,16.90
2015,05,20,12,14,16.90
2015,05,20,12,15,17.00
2015,05,20,12,16,17.10
2015,05,20,12,17,17.10
2015,05,20,12,18,17.20
2015,05,20,12,19,17.20
2015,05,20,12,20,17.30
2015,05,20,12,21,17.40
2015,05,20,12,22,17.50
2015,05,20,12,23,17.60
2015,05,20,12,24,17.70
2015,05,20,12,25,17.80
2015,05,20,12,26,17.80
2015,05,20,12,27,17.80
2015,05,20,12,28,17.80
2015,05,20,12,29,17.80
2015,05,20,12,30,17.80
2015,05,20,12,31,17.70
2015,05,20,12,32,17.60
2015,05,20,12,33,17.60
2015,05,20,12,34,17.60
2015,05,20,12,35,17.60
2015,05,20,12,36,17.60
2015,05,20,12,37,17.50
2015,05,20,12,38,17.50
2015,05,20,12,39,17.60
2015,05,20,12,40,17.60
2015,05,20,12,41,17.60
2015,05,20,12,42,17.70
2015,05,20,12,43,17.90
2015,05,20,12,44,18.00
2015,05,20,12,45,18.20
2015,05,20,12,46,18.30
2015,05,20,12,47,18.30
2015,05,20,12,48,18.30
2015,05,20,12,49,18.20
2015,05,20,12,50,18.20
2015,05,20,12,51,18.10
2015,05,20,12,52,18.10
2015,05,20,12,53,18.10
2015,05,20,12,54,18.10
2015,05,20,12,55,18.10
2015,05,20,12,56,18.10
2015,05,20,12,57,18.10
2015,05,20,12,58,18.10
2015,05,20,12,59,18.00
2015,05,20,13,00,18.00
2015,05,20,13,01,18.10
2015,05,20,13,02,18.10
2015,05,20,13,03,18.20
2015,05,20,13,04,18.30
2015,05,20,13,05,18.30
2015,05,20,13,06,18.40
2015,05,20,13,07,18.40
2015,05,20,13,08,18.50
2015,05,20,13,09,18.40
2015,05,20,13,10,18.50
2015,05,20,13,11,18.60
2015,05,20,13,12,18.70
2015,05,20,13,13,18.80
2015,05,20,13,14,18.80
2015,05,20,13,15,18.90
2015,05,20,13,16,19.00
2015,05,20,13,17,19.10
2015,05,20,13,18,19.10
2015,05,20,13,19,19.10
2015,05,20,13,20,19.00
2015,05,20,13,21,18.90
2015,05,20,13,22,18.80
2015,05,20,13,23,18.70
2015,05,20,13,24,18.60
2015,05,20,13,25,18.50
2015,05,20,13,26,18.50
2015,05,20,13,27,18.40
2015,05,20,13,28,18.30
2015,05,20,13,29,18.20
2015,05,20,13,30,18.20
2015,05,20,13,31,18.10
2015,05,20,13,32,18.00
2015,05,20,13,33,17.90
2015,05,20,13,34,17.80
2015,05,20,13,35,17.80
2015,05,20,13,36,17.80
2015,05,20,13,37,17.80
2015,05,20,13,38,17.90
2015,05,20,13,39,17.90
2015,05,20,13,40,18.00
2015,05,20,13,41,18.10
2015,05,20,13,42,18.20
2015,05,20,13,43,18.30
2015,05,20,13,44,18.30
2015,05,20,13,45,18.40
2015,05,20,13,46,18.30
2015,05,20,13,47,18.30
2015,05,20,13,48,18.20
2015,05,20,13,49,18.10
2015,05,20,13,50,18.00
2015,05,20,13,51,18.10
2015,05,20,13,52,18.10
2015,05,20,13,53,18.20
2015,05,20,13,54,18.20
2015,05,20,13,55,18.30
2015,05,20,13,56,18.30
2015,05,20,13,57,18.40
2015,05,20,13,58,18.50
2015,05,20,13,59,18.50
2015,05,20,14,00,18.60
2015,05,20,14,01,18.70
2015,05,20,14,02,18.70
2015,05,20,14,03,18.80
2015,05,20,14,04,18.90
2015,05,20,14,05,18.90
2015,05,20,14,06,18.90
2015,05,20,14,07,18.90
2015,05,20,14,08,18.80
2015,05,20,14,09,18.80
2015,05,20,14,10,18.80
2015,05,20,14,11,18.80
2015,05,20,14,12,18.80
2015,05,20,14,13,18.90
2015,05,20,14,14,18.90
2015,05,20,14,15,18.90
2015,05,20,14,16,19.00
2015,05,20,14,17,19.00
2015,05,20,14,18,19.00
2015,05,20,14,19,19.00
2015,05,20,14,20,19.00
2015,05,20,14,21,19.00
2015,05,20,14,22,19.10
2015,05,20,14,23,19.10
2015,05,20,14,24,19.20
2015,05,20,14,25,19.20
2015,05,20,14,26,19.30
2015,05,20,14,27,19.30
2015,05,20,14,28,19.40
2015,05,20,14,29,19.40
2015,05,20,14,30,19.40
2015,05,20,14,31,19.40
2015,05,20,14,32,19.50
2015,05,20,14,33,19.40
2015,05,20,14,34,19.50
2015,05,20,14,35,19.50
2015,05,20,14,36,19.50
2015,05,20,14,37,19.50
2015,05,20,14,38,19.50
2015,05,20,14,39,19.40
2015,05,20,14,40,19.40
2015,05,20,14,41,19.30
2015,05,20,14,42,19.30
2015,05,20,14,43,19.30
2015,05,20,14,44,19.20
2015,05,20,14,45,19.10
2015,05,20,14,46,19.10
2015,05,20,14,47,19.10
2015,05,20,14,48,19.20
2015,05,20,14,49,19.30
2015,05,20,14,50,19.30
2015,05,20,14,51,19.30
2015,05,20,14,52,19.20
2015,05,20,14,53,19.20
2015,05,20,14,54,19.20
2015,05,20,14,55,19.30
2015,05,20,14,56,19.30
2015,05,20,14,57,19.30
2015,05,20,14,58,19.40
2015,05,20,14,59,19.50
2015,05,20,15,00,19.50
2015,05,20,15,01,19.60
2015,05,20,15,02,19.50
2015,05,20,15,03,19.40
2015,05,20,15,04,19.30
2015,05,20,15,05,19.30
2015,05,20,15,06,19.30
2015,05,20,15,07,19.40
2015,05,20,15,08,19.40
2015,05,20,15,09,19.40
2015,05,20,15,10,19.40
2015,05,20,15,11,19.50
2015,05,20,15,12,19.50
2015,05,20,15,13,19.60
2015,05,20,15,14,19.60
2015,05,20,15,15,19.60
2015,05,20,15,16,19.60
2015,05,20,15,17,19.60
2015,05,20,15,18,19.50
2015,05,20,15,19,19.50
2015,05,20,15,20,19.40
2015,05,20,15,21,19.40
2015,05,20,15,22,19.40
2015,05,20,15,23,19.40
2015,05,20,15,24,19.40
2015,05,20,15,25,19.40
2015,05,20,15,26,19.40
2015,05,20,15,27,19.40
2015,05,20,15,28,19.30
2015,05,20,15,29,19.30
2015,05,20,15,30,19.30
2015,05,20,15,31,19.30
2015,05,20,15,32,19.30
2015,05,20,15,33,19.30
2015,05,20,15,34,19.40
2015,05,20,15,35,19.40
2015,05,20,15,36,19.50
2015,05,20,15,37,19.50
2015,05,20,15,38,19.60
2015,05,20,15,39,19.60
2015,05,20,15,40,19.70
2015,05,20,15,41,19.70
2015,05,20,15,42,19.70
2015,05,20,15,43,19.70
2015,05,20,15,44,19.70
2015,05,20,15,45,19.70
2015,05,20,15,46,19.70
2015,05,20,15,47,19.70
2015,05,20,15,48,19.70
2015,05,20,15,49,19.70
2015,05,20,15,50,19.70
2015,05,20,15,51,19.70
2015,05,20,15,52,19.80
2015,05,20,15,53,19.90
2015,05,20,15,54,19.90
2015,05,20,15,55,20.00
2015,05,20,15,56,20.10
2015,05,20,15,57,20.10
2015,05,20,15,58,20.20
2015,05,20,15,59,20.30
2015,05,20,16,00,20.30
2015,05,20,16,01,20.20
2015,05,20,16,02,20.20
2015,05,20,16,03,20.20
2015,05,20,16,04,20.10
2015,05,20,16,05,20.10
2015,05,20,16,06,20.10
2015,05,20,16,07,20.00
2015,05,20,16,08,20.00
2015,05,20,16,09,19.90
2015,05,20,16,10,19.90
2015,05,20,16,11,19.90
2015,05,20,16,12,19.90
2015,05,20,16,13,19.80
2015,05,20,16,14,19.80
2015,05,20,16,15,19.80
2015,05,20,16,16,19.70
2015,05,20,16,17,19.70
2015,05,20,16,18,19.80
2015,05,20,16,19,19.80
2015,05,20,16,20,19.80
2015,05,20,16,21,19.90
2015,05,20,16,22,19.80
2015,05,20,16,23,19.80
2015,05,20,16,24,19.80
2015,05,20,16,25,19.80
2015,05,20,16,26,19.80
2015,05,20,16,27,19.70
2015,05,20,16,28,19.70
2015,05,20,16,29,19.80
2015,05,20,16,30,19.80
2015,05,20,16,31,19.90
2015,05,20,16,32,20.00
2015,05,20,16,33,20.10
2015,05,20,16,34,20.20
2015,05,20,16,35,20.20
2015,05,20,16,36,20.20
2015,05,20,16,37,20.10
2015,05,20,16,38,20.10
2015,05,20,16,39,20.20
2015,05,20,16,40,20.10
2015,05,20,16,41,20.10
2015,05,20,16,42,20.10
2015,05,20,16,43,20.00
2015,05,20,16,44,19.90
2015,05,20,16,45,19.90
2015,05,20,16,46,19.90
2015,05,20,16,47,19.90
2015,05,20,16,48,19.90
2015,05,20,16,49,19.90
2015,05,20,16,50,20.00
2015,05,20,16,51,20.10
2015,05,20,16,52,20.10
2015,05,20,16,53,20.10
2015,05,20,16,54,20.10
2015,05,20,16,55,20.10
2015,05,20,16,56,20.10
2015,05,20,16,57,20.10
2015,05,20,16,58,20.10
2015,05,20,16,59,20.20
2015,05,20,17,00,20.20
2015,05,20,17,01,20.30
2015,05,20,17,02,20.40
2015,05,20,17,03,20.40
2015,05,20,17,04,20.50
2015,05,20,17,05,20.50
2015,05,20,17,06,20.60
2015,05,20,17,07,20.60
2015,05,20,17,08,20.70
2015,05,20,17,09,20.70
2015,05,20,17,10,20.60
2015,05,20,17,11,20.60
2015,05,20,17,12,20.60
2015,05,20,17,13,20.60
2015,05,20,17,14,20.50
2015,05,20,17,15,20.50
2015,05,20,17,16,20.50
2015,05,20,17,17,20.50
2015,05,20,17,18,20.50
2015,05,20,17,19,20.50
2015,05,20,17,20,20.50
2015,05,20,17,21,20.60